Location: Croissy-Beaubourg
(48.8283°N, 2.6696°E)
Time: 03:41:18
(UTC+00:00)

IRIDIUM 33 DEB - Visible Passes

Search period start: 28 January 2023 00:00
Search period end: 07 February 2023 00:00
Orbit: 707 x 807 km, 86.2° (Epoch: 23 January)

Date Brightness Start Highest point End Pass type
(mag) Time Alt. Az. Time Alt. Az. Time Alt. Az.
28 Jan ? 17:08:06 10° SSW 17:12:36 38° WNW 17:17:13 10° N visible
29 Jan ? 18:12:47 10° W 18:14:02 11° WNW 18:15:17 10° NW visible
30 Jan ? 17:30:06 10° WSW 17:33:46 21° WNW 17:37:30 10° NNW visible
01 Feb ? 17:53:28 10° W 17:55:03 11° WNW 17:56:39 10° NW visible
04 Feb ? 17:34:00 10° W 17:35:54 12° WNW 17:37:49 10° NW visible
